TimeEDT,TemperatureF,Dew PointF,Humidity,Sea Level PressureIn,VisibilityMPH,Wind Direction,Wind SpeedMPH,Gust SpeedMPH,PrecipitationIn,Events,Conditions,WindDirDegrees,DateUTC
12:53 AM,21.9,15.1,75,30.01,10.0,WNW,4.6,-,N/A,,Clear,290,2013-03-22 04:53:00
1:53 AM,23.0,15.1,72,30.02,10.0,WNW,6.9,-,N/A,,Clear,290,2013-03-22 05:53:00
2:53 AM,23.0,15.1,72,30.01,10.0,WNW,6.9,-,N/A,,Clear,300,2013-03-22 06:53:00
3:53 AM,21.9,15.1,75,30.02,10.0,WNW,9.2,-,N/A,,Clear,290,2013-03-22 07:53:00
4:53 AM,21.9,14.0,72,30.02,10.0,WNW,8.1,-,N/A,,Clear,290,2013-03-22 08:53:00
5:53 AM,19.9,14.0,78,30.03,10.0,WSW,6.9,-,N/A,,Clear,250,2013-03-22 09:53:00
6:53 AM,19.9,14.0,78,30.04,10.0,WSW,6.9,-,N/A,,Clear,250,2013-03-22 10:53:00
7:53 AM,19.9,14.0,78,30.05,10.0,WSW,5.8,-,N/A,,Clear,250,2013-03-22 11:53:00
8:53 AM,24.1,18.0,77,30.05,10.0,West,4.6,-,N/A,,Clear,270,2013-03-22 12:53:00
9:53 AM,28.9,18.0,64,30.05,10.0,WNW,9.2,-,N/A,,Clear,300,2013-03-22 13:53:00
10:53 AM,30.0,17.1,59,30.05,10.0,NW,9.2,-,N/A,,Clear,310,2013-03-22 14:53:00
11:53 AM,33.1,16.0,50,30.04,10.0,West,10.4,-,N/A,,Clear,280,2013-03-22 15:53:00
12:53 PM,36.0,18.0,48,30.05,10.0,West,11.5,-,N/A,,Clear,260,2013-03-22 16:53:00
1:53 PM,37.9,19.9,48,30.04,10.0,West,10.4,18.4,N/A,,Clear,260,2013-03-22 17:53:00
2:53 PM,39.0,19.0,45,30.02,10.0,West,13.8,18.4,N/A,,Clear,270,2013-03-22 18:53:00
3:53 PM,39.9,19.0,43,30.01,10.0,WSW,12.7,-,N/A,,Clear,250,2013-03-22 19:53:00
4:53 PM,41.0,19.0,41,29.99,10.0,WNW,10.4,-,N/A,,Clear,300,2013-03-22 20:53:00
5:53 PM,39.9,18.0,41,30.00,10.0,West,13.8,-,N/A,,Clear,260,2013-03-22 21:53:00
6:53 PM,39.0,18.0,43,30.01,10.0,West,11.5,-,N/A,,Clear,270,2013-03-22 22:53:00
7:53 PM,35.1,19.0,52,30.02,10.0,West,9.2,-,N/A,,Clear,280,2013-03-22 23:53:00
8:53 PM,34.0,18.0,52,30.04,10.0,West,4.6,-,N/A,,Clear,280,2013-03-23 00:53:00
9:53 PM,34.0,17.1,50,30.04,10.0,WSW,4.6,-,N/A,,Clear,250,2013-03-23 01:53:00
10:53 PM,33.1,17.1,52,30.03,10.0,WSW,4.6,-,N/A,,Clear,240,2013-03-23 02:53:00
11:53 PM,27.0,18.0,69,30.04,10.0,Calm,Calm,-,N/A,,Clear,0,2013-03-23 03:53:00